Hurricane Symbol View the latest observations near Atlantic Tropical Storm Alberto.

Station JNGA2 - Juneau ANG Dock, AK Image indicating link to RSS feed of recent meteorological observations for station JNGA2


Conditions at JNGA2 as of
(3:53 pm AKDT)
2353 GMT on 06/19/2024:
     

Click on the graph icon in the table below to see a time series plot of the last five days of that observation.

5-day plot - Wind Direction Wind Direction (WDIR):SSE ( 150 deg true )
5-day plot - Wind Speed Wind Speed (WSPD): 5 kts
5-day plot - Wind Gust Wind Gust (GST): 10 kts
5-day plot - Atmospheric Pressure Atmospheric Pressure (PRES):29.99 in
5-day plot - Air Temperature Air Temperature (ATMP): 68.9 °F
5-day plot - Dew Point Dew Point (DEWP): 54.7 °F
5-day plot - Wind Speed at 10 Meters Wind Speed at 10 meters (WSPD10M): 6 kts
5-day plot - Wind Speed at 20 Meters Wind Speed at 20 meters (WSPD20M): 6 kts
5-day plot -  Wind Speed, Wind Gust and Atmospheric Pressure Combined plot of Wind Speed, Gust, and Air Pressure
Previous observations
TIME
(AKDT)
5-day plot - Wind Direction
WDIR
 
5-day plot - Wind Speed
WSPD
kts
5-day plot - Wind Gust
GST
kts
5-day plot - Wave Height
WVHT
ft
5-day plot - Dominant Wave Period
DPD
sec
5-day plot - Average Wave Period
APD
sec
5-day plot - Mean Wave Direction
MWD
 
5-day plot - Atmospheric Pressure
PRES
in
5-day plot - Pressure Tendency
PTDY
in
5-day plot - Air Temperature
ATMP
°F
5-day plot - Water Temperature
WTMP
°F
5-day plot - Dew Point
DEWP
°F
5-day plot - Salinity
SAL
psu
5-day plot - Visibility
VIS
nmi
5-day plot - Tide (above MLLW)
TIDE
ft
2024-06-19 03:43 pm SE 5 8----29.99- 67.8- 55.2---
2024-06-19 03:33 pmSSE 5 8----29.99- 67.8- 54.7---
2024-06-19 03:23 pmSSE 5 8----29.99- 67.6- 55.0---
2024-06-19 03:13 pmSSE 5 8----29.99- 67.1- 55.6---
2024-06-19 03:03 pmSSE 4 7----29.99- 67.6- 55.8---
2024-06-19 02:53 pmSSE 5 8----30.00- 66.9- 56.1---
2024-06-19 02:43 pm SE 4 8----30.00- 67.5- 55.8---
2024-06-19 02:33 pmSSE 5 8----30.00- 66.4- 56.3---
2024-06-19 02:23 pmSSE 4 8----30.00- 67.3- 56.3---
2024-06-19 02:13 pmSSE 4 8----30.00- 67.6- 55.9---
2024-06-19 02:03 pm SE 4 8----30.00- 67.5- 55.6---
2024-06-19 01:53 pm SE 4 8----30.00- 66.9- 55.8---
2024-06-19 01:43 pmSSE 4 9----30.00- 66.9- 55.2---
2024-06-19 01:33 pmSSE 5 8----30.00- 66.4- 55.2---
2024-06-19 01:23 pmSSE 5 10----30.00- 65.8- 55.4---
2024-06-19 01:13 pm SE 5 9----30.01- 65.5- 55.2---
2024-06-19 01:03 pm SE 5 10----30.01- 65.8- 55.4---
2024-06-19 12:53 pm SE 5 9----30.01- 65.1- 55.4---
2024-06-19 12:43 pm SE 5 9----30.01- 64.9- 55.4---
2024-06-19 12:33 pmSSE 5 9----30.01- 64.6- 55.2---
2024-06-19 12:23 pmSSE 5 9----30.01- 64.8- 55.0---
2024-06-19 12:13 pm SE 4 8----30.01- 64.4- 54.9---
2024-06-19 12:03 pm SE 5 9----30.02- 63.3- 54.5---
2024-06-19 11:53 am SE 5 8----30.02- 62.6- 54.9---
2024-06-19 11:43 am SE 5 8----30.02- 62.4- 55.0---
2024-06-19 11:33 am SE 6 8----30.02- 62.1- 54.3---
2024-06-19 11:23 am SE 4 8----30.02- 62.2- 54.9---
2024-06-19 11:13 am SE 5 8----30.02- 61.9- 54.5---
2024-06-19 11:03 amSSE 4 7----30.03- 62.2- 54.5---
2024-06-19 10:53 am SE 4 6----30.03- 62.1- 54.3---
2024-06-19 10:43 am SE 4 8----30.03- 61.7- 54.5---
2024-06-19 10:33 amSSE 5 8----30.03- 61.2- 54.5---
2024-06-19 10:23 am SE 4 7----30.03- 61.5- 54.7---
2024-06-19 10:13 amSSE 3 6----30.03- 61.2- 54.7---
2024-06-19 10:03 am SE 4 8----30.03- 60.6- 54.7---
2024-06-19 09:53 am SE 4 7----30.03- 60.4- 54.5---
2024-06-19 09:43 am SE 4 9----30.03- 59.9- 54.0---
2024-06-19 09:33 amSSE 4 7----30.03- 59.9- 54.0---
2024-06-19 09:23 am SE 4 7----30.03- 59.9- 54.0---
2024-06-19 09:13 am SE 4 6----30.03- 59.2- 53.8---
2024-06-19 09:03 am SE 4 6----30.03- 59.0- 53.6---
2024-06-19 08:53 am SE 4 6----30.03- 59.0- 53.6---
2024-06-19 08:43 am SE 4 6----30.03- 59.0- 53.4---
2024-06-19 08:33 am SE 4 7----30.03- 59.2- 53.4---
2024-06-19 08:23 amSSE 2 5----30.03- 58.5- 53.6---
2024-06-19 08:13 am- 0 2----30.03- 57.9- 54.0---
2024-06-19 08:03 amNNE 1 2----30.03- 57.0- 53.2---
2024-06-19 07:53 am E 1 2----30.03- 55.9- 52.5---
2024-06-19 07:43 am SE 2 2----30.03- 55.4- 52.2---
2024-06-19 07:33 am SE 2 2----30.03- 55.6- 52.2---
2024-06-19 07:23 amSSE 2 3----30.03- 55.4- 51.8---
2024-06-19 07:13 am SE 2 3----30.03- 55.6- 51.8---
2024-06-19 07:03 am SE 1 2----30.03- 55.8- 52.2---
2024-06-19 06:53 am- 0 2----30.03- 55.6- 52.2---
2024-06-19 06:43 amSSE 1 3----30.03- 55.2- 52.0---
2024-06-19 06:33 am S 1 3----30.03- 55.2- 52.2---
2024-06-19 06:23 am S 2 4----30.03- 55.2- 52.0---
2024-06-19 06:13 am S 2 4----30.03- 55.6- 52.2---
2024-06-19 06:03 am SE 2 4----30.03- 55.2- 52.0---
2024-06-19 05:53 am SE 3 5----30.03- 54.9- 52.2---
2024-06-19 05:43 am SE 3 4----30.03- 54.7- 52.2---
2024-06-19 05:33 am SE 3 4----30.03- 54.5- 52.3---
2024-06-19 05:23 am SE 2 4----30.03- 54.3- 52.3---
2024-06-19 05:13 amSSE 2 4----30.03- 54.1- 52.3---
2024-06-19 05:03 amSSE 3 4----30.03- 54.0- 52.3---
2024-06-19 04:53 amSSE 2 3----30.02- 54.3- 52.2---
2024-06-19 04:43 am SE 1 2----30.03- 54.1- 52.0---
2024-06-19 04:33 am SE 1 2----30.02- 54.1- 51.8---
2024-06-19 04:23 amESE 2 3----30.02- 54.1- 51.8---
2024-06-19 04:13 am SE 2 4----30.02- 54.3- 52.0---
2024-06-19 04:03 am- 0 2----30.02- 54.5- 52.2---
2024-06-19 03:53 am- 0 2----30.02- 54.5- 52.0---
2024-06-19 03:43 amESE 1 2----30.02- 54.5- 52.2---
2024-06-19 03:33 amESE 2 3----30.02- 54.5- 52.3---
2024-06-19 03:23 am- 0 1----30.02- 54.7- 52.5---
2024-06-19 03:13 am- 0 1----30.02- 54.7- 52.5---
2024-06-19 03:03 am- 0 1----30.01- 54.7- 52.7---
2024-06-19 02:53 amESE 1 3----30.01- 54.5- 52.5---
2024-06-19 02:43 amESE 2 3----30.01- 54.5- 52.5---
2024-06-19 02:33 am SE 2 3----30.01- 54.5- 52.5---
2024-06-19 02:23 amESE 1 2----30.01- 54.7- 52.7---
2024-06-19 02:13 am- 0 2----30.01- 54.9- 52.5---
2024-06-19 02:03 am- 0 2----30.01- 54.9- 52.5---
2024-06-19 01:53 amESE 2 3----30.01- 54.7- 52.3---
2024-06-19 01:33 am SE 2 3----30.00- 54.5- 52.5---
2024-06-19 01:23 am SE 1 2----30.00- 54.5- 52.2---
2024-06-19 01:13 am- 0 2----30.00- 54.9- 52.5---
2024-06-19 01:03 am- 0 1----30.00- 55.2- 52.5---
2024-06-19 12:53 am- 0 1----30.00- 55.4- 52.9---
2024-06-19 12:43 am- 0 2----30.00- 55.6- 53.1---
2024-06-19 12:33 am E 1 2----29.99- 55.8- 53.2---
2024-06-19 12:23 amESE 1 2----29.99- 56.1- 53.4---
2024-06-19 12:13 amESE 2 3----29.99- 56.5- 53.2---
2024-06-19 12:03 amESE 1 2----29.99- 56.7- 53.1---
2024-06-18 11:53 pm E 2 2----29.98- 56.8- 53.4---
2024-06-18 11:43 pm- 0 1----29.99- 57.0- 53.4---
2024-06-18 11:33 pm- 0 2----29.98- 57.4- 53.6---
2024-06-18 11:23 pm- 0 1----29.98- 57.7- 54.0---
2024-06-18 11:13 pm- 0 2----29.98- 58.3- 54.0---
2024-06-18 11:03 pmESE 1 3----29.98- 58.8- 54.5---
2024-06-18 10:53 pmESE 1 3----29.98- 59.2- 54.0---
2024-06-18 10:43 pmENE 2 2----29.98- 59.2- 54.0---
2024-06-18 10:33 pmENE 1 2----29.98- 59.5- 54.7---
2024-06-18 10:23 pm N 2 3----29.98- 59.5- 54.9---
2024-06-18 10:13 pm NW 1 2----29.98- 59.5- 55.0---
2024-06-18 10:03 pmNNW 2 3----29.98- 59.9- 55.0---
2024-06-18 09:53 pm NW 2 2----29.98- 60.8- 55.0---
2024-06-18 09:43 pm NW 1 2----29.98- 62.1- 54.9---
2024-06-18 09:33 pm- 0 1----29.98- 63.5- 55.0---
2024-06-18 09:23 pm- 0 2----29.98- 63.9- 55.0---
2024-06-18 09:13 pmESE 2 4----29.98- 64.6- 54.5---
2024-06-18 09:03 pm SE 2 3----29.98- 64.6- 54.3---
2024-06-18 08:53 pm SE 2 4----29.98- 64.4- 54.3---
2024-06-18 08:43 pm SE 2 4----29.98- 64.2- 54.3---
2024-06-18 08:33 pmSSE 2 4----29.98- 64.2- 54.7---
2024-06-18 08:23 pmSSE 3 4----29.98- 64.2- 54.7---
2024-06-18 08:13 pmSSE 3 5----29.97- 64.0- 54.7---
2024-06-18 08:03 pmSSE 4 7----29.97- 63.9- 54.3---
2024-06-18 07:53 pmSSE 3 6----29.97- 64.8- 54.3---
2024-06-18 07:43 pm SE 3 6----29.97- 65.1- 54.7---
2024-06-18 07:33 pm SE 3 5----29.97- 65.1- 54.7---
2024-06-18 07:23 pm SE 3 6----29.98- 65.1- 54.9---
2024-06-18 07:13 pmESE 3 6----29.97- 65.8- 55.0---
2024-06-18 07:03 pmSSE 3 5----29.97- 66.7- 54.1---
2024-06-18 06:53 pmSSW 2 4----29.97- 68.2- 54.1---
2024-06-18 06:43 pm SW 3 5----29.97- 68.4- 54.0---
2024-06-18 06:33 pmSSE 2 4----29.98- 68.2- 54.1---
2024-06-18 06:23 pmSSE 2 5----29.97- 68.2- 54.3---
2024-06-18 06:13 pmSSW 3 5----29.97- 67.8- 54.3---
2024-06-18 06:03 pmSSE 4 6----29.98- 67.6- 53.4---
2024-06-18 05:53 pmSSW 2 4----29.98- 67.8- 54.0---
2024-06-18 05:43 pm SW 3 5----29.98- 66.7- 54.0---
2024-06-18 05:33 pmWSW 3 4----29.98- 65.8- 54.5---
2024-06-18 05:23 pmWSW 3 5----29.98- 64.9- 54.7---
2024-06-18 05:13 pm SW 4 5----29.98- 64.9- 55.0---
2024-06-18 05:03 pmSSW 3 5----29.98- 65.7- 55.2---
2024-06-18 04:53 pm S 3 5----29.99- 67.6- 54.7---
2024-06-18 04:43 pmSSE 3 5----29.99- 67.8- 54.0---
2024-06-18 04:33 pmSSE 3 6----29.98- 66.7- 54.1---
2024-06-18 04:23 pmSSE 3 6----29.98- 66.6- 54.3---
2024-06-18 04:13 pmSSE 4 6----29.98- 64.8- 53.8---
2024-06-18 03:53 pmSSE 3 5----29.99- 65.7- 54.1---